User: anonymous   Login
Location: Mentone
(34.5413°N, 85.5351°W)
Time: 21:53:15
(UTC-05:00)
Language:

Transit 2A Rocket - Orbit

View from above orbital plane
View from above orbital plane
View from above satellite
View from above satellite

Ground track
Ground track

The orbit data is extracted from the following two-line orbital elements,

1 00047U 60007C   16239.22706895 -.00000005  00000-0  23944-4 0  9996
2 00047  66.6646 274.3326 0235230 241.7991 115.9180 14.41850034934531
Epoch (UTC): 26 August 2016 05:26:58
Eccentricity: 0.0235230
inclination: 66.6646°
perigee height: 584 km
apogee height: 920 km
right ascension of ascending node: 274.3326°
argument of perigee: 241.7991°
revolutions per day: 14.41850034
mean anomaly at epoch: 115.9180°
orbit number at epoch: 93453

The dashed part of the orbit path shows where the satellite is in the earth's shadow,  

DLR